When you browse on this site, cookies collect data to enhance your experience and personalize the content and advertising you see.
Visit our Privacy Policy to learn more. By continuing to use the site, you agree to this use of cookies and data.
  • In Spain
  • List of Countries
  • For 7 days
  • Water Temperature
  • Satellite Maps
  • Weather Map
  • Weather Widgets
  • user-avatar
    Login

    Hourly Weather Shibam

    Today, 21 June, Friday

    Time Temperature Precipitation Wind Pressure Humidity
    00:00 +21°C° 0.2 mm 1 mps 560 mmHg 58%
    01:00 +21°C° 0.1 mm 1 mps 560 mmHg 57%
    02:00 +20°C° 0.1 mm 2 mps 560 mmHg 56%
    03:00 +20°C° 0.1 mm 2 mps 559 mmHg 55%
    04:00 +20°C° 0.1 mm 2 mps 559 mmHg 52%
    05:00 +19°C° 0.1 mm 2 mps 560 mmHg 48%
    06:00 +19°C° 0.1 mm 2 mps 560 mmHg 44%
    07:00 +20°C° 0 mm 2 mps 560 mmHg 40%
    08:00 +22°C° 0 mm 1 mps 561 mmHg 36%
    09:00 +23°C° 0 mm 1 mps 562 mmHg 32%
    10:00 +24°C° 0 mm 2 mps 562 mmHg 32%
    11:00 +24°C° 0 mm 2 mps 562 mmHg 32%
    12:00 +25°C° 0 mm 3 mps 562 mmHg 31%
    13:00 +25°C° 0.1 mm 3 mps 561 mmHg 34%
    14:00 +24°C° 0.1 mm 2 mps 561 mmHg 36%
    15:00 +24°C° 0.1 mm 2 mps 560 mmHg 38%
    16:00 +23°C° 1.3 mm 2 mps 560 mmHg 45%
    17:00 +21°C° 1.3 mm 2 mps 559 mmHg 53%
    18:00 +20°C° 1.3 mm 2 mps 559 mmHg 60%
    19:00 +20°C° 0.1 mm 2 mps 559 mmHg 56%
    20:00 +20°C° 0.1 mm 2 mps 560 mmHg 53%
    21:00 +20°C° 0.1 mm 2 mps 560 mmHg 49%
    22:00 +20°C° 0 mm 2 mps 560 mmHg 51%
    23:00 +20°C° 0 mm 2 mps 560 mmHg 52%

    Tomorrow, 22 June, Saturday

    Time Temperature Precipitation Wind Pressure Humidity
    00:00 +20°C° 0 mm 1 mps 559 mmHg 53%
    01:00 +20°C° 0 mm 1 mps 559 mmHg 54%
    02:00 +19°C° 0 mm 1 mps 558 mmHg 54%
    03:00 +19°C° 0 mm 1 mps 558 mmHg 55%
    04:00 +19°C° 0 mm 1 mps 558 mmHg 53%
    05:00 +19°C° 0 mm 1 mps 558 mmHg 50%
    06:00 +19°C° 0 mm 1 mps 558 mmHg 48%
    07:00 +20°C° 0 mm 2 mps 560 mmHg 39%
    08:00 +21°C° 0 mm 3 mps 561 mmHg 30%
    09:00 +23°C° 0 mm 4 mps 562 mmHg 20%
    10:00 +25°C° 0 mm 4 mps 562 mmHg 20%
    11:00 +25°C° 0 mm 4 mps 562 mmHg 19%
    12:00 +26°C° 0 mm 4 mps 562 mmHg 18%
    13:00 +26°C° 0 mm 5 mps 562 mmHg 17%
    14:00 +27°C° 0 mm 5 mps 562 mmHg 16%
    15:00 +27°C° 0 mm 5 mps 561 mmHg 16%
    16:00 +26°C° 0 mm 5 mps 561 mmHg 20%
    17:00 +25°C° 0 mm 5 mps 560 mmHg 23%
    18:00 +23°C° 0 mm 5 mps 560 mmHg 27%
    19:00 +22°C° 0 mm 4 mps 560 mmHg 32%
    20:00 +21°C° 0 mm 3 mps 560 mmHg 38%
    21:00 +21°C° 0 mm 2 mps 560 mmHg 43%
    22:00 +20°C° 0 mm 2 mps 560 mmHg 43%
    23:00 +20°C° 0 mm 2 mps 559 mmHg 43%

    Day after tomorrow, 23 June, Sunday

    Time Temperature Precipitation Wind Pressure Humidity
    00:00 +19°C° 0 mm 2 mps 559 mmHg 42%
    01:00 +20°C° 0 mm 1 mps 558 mmHg 40%
    02:00 +19°C° 0 mm 1 mps 558 mmHg 38%
    03:00 +19°C° 0 mm 1 mps 557 mmHg 35%
    04:00 +18°C° 0 mm 1 mps 557 mmHg 36%
    05:00 +16°C° 0 mm 0 mps 557 mmHg 36%
    06:00 +16°C° 0 mm 0 mps 557 mmHg 37%
    07:00 +20°C° 0 mm 1 mps 559 mmHg 31%
    08:00 +20°C° 0 mm 2 mps 560 mmHg 26%
    09:00 +23°C° 0 mm 2 mps 561 mmHg 20%
    10:00 +24°C° 0 mm 3 mps 561 mmHg 21%
    11:00 +25°C° 0 mm 4 mps 561 mmHg 21%
    12:00 +25°C° 0 mm 5 mps 562 mmHg 22%
    13:00 +25°C° 0.2 mm 5 mps 561 mmHg 25%
    14:00 +25°C° 0.2 mm 5 mps 561 mmHg 27%
    15:00 +25°C° 0.2 mm 5 mps 560 mmHg 30%
    16:00 +23°C° 0.2 mm 4 mps 560 mmHg 36%
    17:00 +22°C° 0.2 mm 4 mps 559 mmHg 42%
    18:00 +21°C° 0.2 mm 4 mps 559 mmHg 48%
    19:00 +21°C° 0 mm 3 mps 559 mmHg 49%
    20:00 +21°C° 0 mm 2 mps 559 mmHg 50%
    21:00 +20°C° 0 mm 2 mps 560 mmHg 51%
    22:00 +20°C° 0 mm 2 mps 559 mmHg 52%
    23:00 +21°C° 0 mm 1 mps 559 mmHg 53%

    24 June, Monday

    Time Temperature Precipitation Wind Pressure Humidity
    00:00 +20°C° 0 mm 1 mps 559 mmHg 53%
    01:00 +20°C° 0 mm 1 mps 558 mmHg 52%
    02:00 +20°C° 0 mm 1 mps 558 mmHg 50%
    03:00 +19°C° 0 mm 1 mps 557 mmHg 48%
    04:00 +19°C° 0 mm 1 mps 558 mmHg 46%
    05:00 +19°C° 0 mm 1 mps 558 mmHg 45%
    06:00 +18°C° 0 mm 1 mps 558 mmHg 43%
    07:00 +19°C° 0 mm 2 mps 559 mmHg 35%
    08:00 +21°C° 0 mm 3 mps 560 mmHg 26%
    09:00 +22°C° 0 mm 4 mps 561 mmHg 18%
    10:00 +23°C° 0 mm 5 mps 561 mmHg 18%
    11:00 +25°C° 0 mm 5 mps 561 mmHg 19%
    12:00 +25°C° 0 mm 5 mps 562 mmHg 19%
    13:00 +25°C° 0.1 mm 5 mps 561 mmHg 20%
    14:00 +25°C° 0.1 mm 5 mps 561 mmHg 21%
    15:00 +25°C° 0.1 mm 5 mps 560 mmHg 22%
    16:00 +25°C° 0.2 mm 5 mps 560 mmHg 27%
    17:00 +23°C° 0.2 mm 5 mps 560 mmHg 32%
    18:00 +22°C° 0.2 mm 4 mps 560 mmHg 37%
    19:00 +21°C° 0.3 mm 4 mps 560 mmHg 39%
    20:00 +21°C° 0.3 mm 4 mps 560 mmHg 42%
    21:00 +20°C° 0.3 mm 3 mps 560 mmHg 45%
    22:00 +20°C° 0 mm 3 mps 560 mmHg 45%
    23:00 +20°C° 0 mm 2 mps 559 mmHg 45%

    25 June, Tuesday

    Time Temperature Precipitation Wind Pressure Humidity
    00:00 +20°C° 0 mm 2 mps 559 mmHg 44%
    01:00 +19°C° 0 mm 2 mps 559 mmHg 44%
    02:00 +20°C° 0 mm 1 mps 558 mmHg 44%
    03:00 +20°C° 0 mm 1 mps 558 mmHg 44%
    04:00 +19°C° 0 mm 1 mps 558 mmHg 44%
    05:00 +19°C° 0 mm 1 mps 558 mmHg 45%
    06:00 +19°C° 0 mm 1 mps 559 mmHg 45%
    07:00 +20°C° 0 mm 2 mps 560 mmHg 40%
    08:00 +21°C° 0 mm 3 mps 561 mmHg 36%
    09:00 +22°C° 0 mm 4 mps 562 mmHg 31%
    10:00 +23°C° 0.2 mm 4 mps 562 mmHg 32%
    11:00 +23°C° 0.2 mm 4 mps 562 mmHg 33%
    12:00 +23°C° 0.2 mm 5 mps 561 mmHg 33%
    13:00 +23°C° 0.5 mm 5 mps 561 mmHg 34%
    14:00 +23°C° 0.5 mm 5 mps 561 mmHg 35%
    15:00 +23°C° 0.5 mm 5 mps 561 mmHg 35%
    16:00 +23°C° 0.7 mm 5 mps 561 mmHg 38%
    17:00 +22°C° 0.7 mm 4 mps 560 mmHg 40%
    18:00 +21°C° 0.7 mm 4 mps 560 mmHg 43%
    19:00 +21°C° 0.3 mm 3 mps 560 mmHg 45%
    20:00 +20°C° 0.3 mm 3 mps 560 mmHg 48%
    21:00 +20°C° 0.3 mm 2 mps 560 mmHg 51%
    22:00 +20°C° 0 mm 2 mps 560 mmHg 49%
    23:00 +20°C° 0 mm 2 mps 560 mmHg 47%

    26 June, Wednesday

    Time Temperature Precipitation Wind Pressure Humidity
    00:00 +19°C° 0 mm 3 mps 560 mmHg 45%
    01:00 +19°C° 0 mm 2 mps 559 mmHg 45%
    02:00 +19°C° 0 mm 2 mps 559 mmHg 44%
    03:00 +19°C° 0 mm 2 mps 559 mmHg 43%
    04:00 +19°C° 0 mm 2 mps 559 mmHg 44%
    05:00 +19°C° 0 mm 2 mps 559 mmHg 45%
    06:00 +18°C° 0 mm 2 mps 559 mmHg 46%
    07:00 +20°C° 0 mm 3 mps 560 mmHg 42%
    08:00 +21°C° 0 mm 3 mps 561 mmHg 38%
    09:00 +23°C° 0 mm 4 mps 562 mmHg 34%
    10:00 +23°C° 0 mm 4 mps 562 mmHg 33%
    11:00 +25°C° 0 mm 5 mps 561 mmHg 33%
    12:00 +25°C° 0 mm 5 mps 561 mmHg 32%
    13:00 +25°C° 0.3 mm 5 mps 561 mmHg 34%
    14:00 +25°C° 0.3 mm 5 mps 561 mmHg 35%
    15:00 +25°C° 0.3 mm 5 mps 560 mmHg 37%
    16:00 +23°C° 0.6 mm 4 mps 560 mmHg 41%
    17:00 +22°C° 0.6 mm 4 mps 560 mmHg 45%
    18:00 +21°C° 0.6 mm 3 mps 559 mmHg 49%
    19:00 +21°C° 0.1 mm 2 mps 559 mmHg 49%
    20:00 +21°C° 0.1 mm 2 mps 560 mmHg 49%
    21:00 +21°C° 0.1 mm 1 mps 560 mmHg 49%
    22:00 +21°C° 0 mm 1 mps 559 mmHg 51%
    23:00 +20°C° 0 mm 1 mps 559 mmHg 53%
    Show more